Regional Weather Roundup
Issued by NWS

Home | Current Version | Previous Version | Text Only | Print | Product List | Glossary Off
Versions: 1 2 3 4 5 6 7 8 9 10 11 12 13 14 15 16 17 18 19 20 21 22 23 24 25 26 27 28 29 30 31 32 33 34 35 36 37 38 39 40 41 42 43 44 45 46 47 48 49 50

000
ASUS43 KOAX 220110
RWRNE

WEATHER ROUNDUP FOR NEBRASKA
NATIONAL WEATHER SERVICE OMAHA NE
800 PM CDT THU SEP 21 2017

NOTES: SATELLITE DATA IS BEING USED TO AUGMENT CLOUD COVER ABOVE
       12000 FEET.
       "FAIR" INDICATES FEW OR NO CLOUDS BELOW 12,000 FEET WITH NO
       SIGNIFICANT WEATHER AND/OR OBSTRUCTIONS TO VISIBILITY.


NEZ001>004-019>022-054>056-220200-
NEBRASKA PANHANDLE

CITY           SKY/WX    TMP DP  RH WIND       PRES   REMARKS
SCOTTSBLUFF    CLEAR     72  42  34 E10       29.62S
ALLIANCE       CLEAR     66  47  50 E10       29.64F
CHADRON        CLEAR     75  37  25 N24G31    29.63R
GORDON         FAIR      71  47  43 E6        29.66S
KIMBALL        CLEAR     74  37  26 E8        29.68F
SIDNEY         CLEAR     76  42  29 NE9       29.66S
$$

NEZ057>060-069>072-079>082-220200-
SOUTHWEST NEBRASKA

CITY           SKY/WX    TMP DP  RH WIND       PRES   REMARKS
NORTH PLATTE   CLEAR     88  39  17 S14       29.62R
IMPERIAL       CLEAR     84  38  19 SE14      29.62R
LEXINGTON      CLEAR     82  46  28 S9        29.66R
MCCOOK         LGT RAIN  87  42  20 S12       29.64R
OGALLALA       CLEAR     85  35  16 SE8       29.61S
$$

NEZ005>010-023>029-035>040-094-220200-
NORTH CENTRAL NEBRASKA

CITY           SKY/WX    TMP DP  RH WIND       PRES   REMARKS
VALENTINE      CLEAR     77  51  40 N6        29.64R
AINSWORTH      CLEAR     75  57  53 SE9       29.65F
BROKEN BOW     CLEAR     84  49  29 S12       29.65R
O`NEILL        CLEAR     82  68  60 SE12      29.66S
ORD            CLEAR     85  63  47 SE14      29.64R
THEDFORD       CLEAR     80  53  39 E5        29.65S
$$

NEZ041-046>049-061>064-073>077-083>087-220200-
SOUTH CENTRAL NEBRASKA

CITY           SKY/WX    TMP DP  RH WIND       PRES   REMARKS
GRAND ISLAND   CLEAR     86  67  52 SE14      29.68R
AURORA         CLEAR     84  67  54 SE13      29.69S
HASTINGS       CLEAR     88  63  43 SE12G21   29.68S
HEBRON         CLEAR     88  69  53 SE13G18   29.71R HX  92
HOLDREGE       CLEAR     80  44  27 S6        29.67R
KEARNEY        CLEAR     84  59  42 S12       29.67R
YORK           CLEAR     86  68  54 SE13G21   29.71R
$$

NEZ011>018-030>034-042>045-220200-
NORTHEAST NEBRASKA

CITY           SKY/WX    TMP DP  RH WIND       PRES   REMARKS
NORFOLK        CLEAR     84  70  62 SE15      29.69R
ALBION         CLEAR     83  70  63 SE9       29.69R
BLAIR          CLEAR     85  72  64 SE12G18   29.75S HX  91
COLUMBUS       CLEAR     85  71  63 SE12      29.71R HX  90
FREMONT        CLEAR     85  70  61 SE10G17   29.74R
TEKAMAH        CLEAR     82  71  69 SE9       29.72R
WAYNE          CLEAR     82  74  78 S13       29.71R
$$

NEZ050>053-065>068-078-088>093-220200-
SOUTHEAST NEBRASKA

CITY           SKY/WX    TMP DP  RH WIND       PRES   REMARKS
LINCOLN        CLEAR     87  72  60 S20G25    29.73R HX  93
OMAHA EPPLEY   CLEAR     87  72  60 SE21G29   29.74S HX  93
BEATRICE       PTCLDY    87  74  63 SE16G22   29.74S HX  95
FALLS CITY     CLEAR     85  73  67 S15       29.78S HX  91
NEBRASKA CITY  CLEAR     84  74  71 S18G25    29.78S HX  92
PLATTSMOUTH    CLEAR     85  73  67 SE16G25   29.77S HX  92
$$

NEZ044-045-051>053-067-220200-
OMAHA AREA

CITY           SKY/WX    TMP DP  RH WIND       PRES   REMARKS
OMAHA EPPLEY   CLEAR     87  72  60 SE21G29   29.74S HX  93
BLAIR          CLEAR     85  72  64 SE12G18   29.75S HX  91
FREMONT        CLEAR     85  70  61 SE10G17   29.74R
MILLARD        CLEAR     86  74  67 SE14      29.74S HX  94
OFFUTT AFB     CLEAR     85  72  63 SE18G24   29.75R HX  91
PLATTSMOUTH    CLEAR     85  73  67 SE16G25   29.77S HX  92
WAHOO          FAIR      84  71  64 SE12      29.73R
$$




USA.gov is the U.S. government's official web portal to all federal, state and local government web resources and services.